Home   Weather   42°22'N, 83°25'W   Past weeks
Flag for USA

Past Weather in 42°22'N, 83°25'W, USA — Yesterday and Last 2 Weeks

Now
26 °F

Overcast.


Feels Like: 18 °F
Forecast: 26 / 18 °F
Wind: 7 mph from Northeast

Location: Detroit City Airport

Current Time: Jan 19, 2019 at 1:17:29 am

Latest Report: Jan 19, 2019 at 12:53 am


Visibility: 10 mi

Pressure: 30.26 "Hg

Humidity: 57%

Dew Point: 13 °F

Location of 42°22'N, 83°25'WLocation

Past Weather in 42°22'N, 83°25'W — Graph

°F

42°22'N, 83°25'W Temperature Yesterday

Maximum temperature yesterday: 31 °F (at 12:00 am)
Minimum temperature yesterday: 27 °F (at 6:53 pm)
Average temperature yesterday: 30 °F

High & Low Weather Summary for the Past Weeks

 TemperatureHumidityPressure
High53 °F (Jan 7, 9:53 pm)96% (Jan 5, 8:53 am)31.00 "Hg (Jan 5, 8:53 am)
Low15 °F (Jan 14, 7:53 am)43% (Jan 14, 2:53 pm)28.17 "Hg (Jan 14, 6:53 am)
Average31 °F70%30.12 "Hg
* Reported Jan 3 11:53 pm — Jan 18 11:53 pm, 42°22'N, 83°25'W. Weather by CustomWeather, © 2019

Note: Actual official high and low records may vary slightly from our data, if they occured in-between our weather recording intervals... More about our weather records

Advertising

42°22'N, 83°25'W Weather History for the Previous 24 Hours

Scroll right to see more
 ConditionsComfort  
Time TempWeatherWind HumidityBarometerVisibility
11:53 pm
Fri, Jan 18
27 °FOvercast.5 mph61%30.25 "Hg10 mi
10:53 pm27 °FOvercast.7 mph61%30.24 "Hg10 mi
9:53 pm27 °FOvercast.3 mph61%30.25 "Hg10 mi
8:53 pm27 °FOvercast.8 mph61%30.24 "Hg10 mi
7:53 pm27 °FOvercast.5 mph63%30.24 "Hg10 mi
6:53 pm27 °FOvercast.5 mph63%30.23 "Hg10 mi
5:53 pm28 °FOvercast.3 mph64%30.22 "Hg10 mi
4:53 pm28 °FPartly sunny.7 mph64%30.20 "Hg10 mi
4:08 pm29 °FScattered clouds.8 mph61%30.16 "Hg10 mi
2:53 pm28 °FOvercast.10 mph66%30.17 "Hg10 mi
1:53 pm29 °FOvercast.12 mph66%30.16 "Hg10 mi
12:53 pm30 °FOvercast.8 mph69%30.15 "Hg10 mi
11:53 am30 °FMore clouds than sun.9 mph69%30.14 "Hg10 mi
10:53 am31 °FOvercast.8 mph76%30.15 "Hg8 mi
10:15 am31 °FMore clouds than sun.13 mph82%30.11 "Hg7 mi
9:53 am31 °FIce fog.6 mph85%30.12 "Hg4 mi
8:53 am31 °FOvercast.6 mph82%30.09 "Hg4 mi
8:04 am31 °FMostly cloudy.3 mph82%30.06 "Hg6 mi
7:53 am31 °FMostly cloudy.3 mph82%30.09 "Hg6 mi
6:53 am30 °FMostly cloudy.3 mph82%30.06 "Hg7 mi
5:53 am30 °FOvercast.3 mph82%30.04 "Hg7 mi
4:53 am31 °FMostly cloudy.6 mph82%30.03 "Hg7 mi
4:42 am31 °FMostly cloudy.6 mph82%30.01 "Hg7 mi
4:28 am31 °FMostly cloudy.7 mph82%30.01 "Hg8 mi
4:15 am31 °FMostly cloudy.6 mph82%30.01 "Hg8 mi
3:53 am31 °FMostly cloudy.6 mph82%30.02 "Hg7 mi
2:53 am31 °FIce fog.5 mph85%30.01 "Hg6 mi
1:53 am31 °FIce fog.3 mph89%29.99 "Hg4 mi
Weather by CustomWeather, © 2019

See weather overview